Weather History for KSHV - June, 2012

Change the Weather History Date:

Sunday, June 24, 2012

  Actual Average Record
Temperature  
Mean Temperature 86 °F 81 °F  
Max Temperature 98 °F 92 °F 101 °F (1882)
Min Temperature 74 °F 71 °F 62 °F (1974)
Degree Days  
Heating Degree Days 0 0  
Month to date heating degree days 0 0  
Since 1 June heating degree days 0 0  
Since 1 July heating degree days 1535 2226  
Cooling Degree Days 21 16  
Month to date cooling degree days 400 344  
Year to date cooling degree days 1096 742  
Since 1 June cooling degree days 400 344  
Growing Degree Days 36 (Base 50)    
Moisture  
Dew Point 68 °F    
Average Humidity 59    
Maximum Humidity 82    
Minimum Humidity 35    
Precipitation  
Precipitation 0.00 in 0.17 in 3.05 in (1999)
Month to date precipitation 5.15 4.40  
Year to date precipitation 24.34 26.61  
Snow  
Snow 0.00 in - - ()
Month to date snowfall 0.0  
Since 1 June snowfall 0.0  
Since 1 July snowfall T  
Snow Depth 0.00 in    
Sea Level Pressure  
Sea Level Pressure 29.89 in    
Wind  
Wind Speed 3 mph (North)    
Max Wind Speed 12 mph    
Max Gust Speed 15 mph    
Visibility 10 miles    
Events      
T = Trace of Precipitation, MM = Missing Value Source: NWS Daily Summary

Daily Weather History Graph

Daily Weather History Graph

Search for Another Location

Airport or City:

Trip Planner

Search our weather history database for the weather conditions in past years. The results will help you decide how hot, cold, wet, or windy it might be!

Date:

Astronomy

Jun. 24, 2012 Rise Set
Actual Time 6:09 AM CDT 8:26 PM CDT
Civil Twilight 5:40 AM CDT 8:54 PM CDT
Nautical Twilight 5:06 AM CDT 9:29 PM CDT
Astronomical Twilight 4:28 AM CDT 10:07 PM CDT
Moon 10:58 AM CDT (6/24) 11:44 PM CDT (6/24)
Length of Visible Light 15h 13m
Length of Day
14h 16m
Waxing Crescent, 25% of the Moon is Illuminated
Jun 24
Waxing Crescent
Jun 26
First Quarter
Jul 3
Full
Jul 10
Last Quarter
Jul 18
New

Hourly Weather History & Observations

Time (CDT) Temp. Heat Index Dew Point Humidity Pressure Visibility Wind Dir Wind Speed Gust Speed Precip Events Conditions
12:56 AM 79.0 °F - 69.1 °F 72% 29.90 in 10.0 mi Calm Calm - N/A   Clear
1:56 AM 77.0 °F - 69.1 °F 76% 29.89 in 10.0 mi Calm Calm - N/A   Clear
2:56 AM 75.9 °F - 68.0 °F 76% 29.89 in 10.0 mi Calm Calm - N/A   Clear
3:56 AM 75.0 °F - 69.1 °F 82% 29.89 in 10.0 mi Calm Calm - N/A   Clear
4:56 AM 75.0 °F - 69.1 °F 82% 29.90 in 9.0 mi Calm Calm - N/A   Clear
5:56 AM 75.0 °F - 69.1 °F 82% 29.91 in 9.0 mi Calm Calm - N/A   Clear
6:56 AM 78.1 °F - 70.0 °F 76% 29.93 in 10.0 mi North 3.5 mph - N/A   Clear
7:56 AM 82.0 °F 86.3 °F 71.1 °F 69% 29.94 in 10.0 mi Calm Calm - N/A   Clear
8:56 AM 84.9 °F 88.8 °F 69.1 °F 59% 29.94 in 10.0 mi ENE 4.6 mph - N/A   Clear
9:56 AM 89.1 °F 94.1 °F 70.0 °F 53% 29.95 in 10.0 mi Calm Calm - N/A   Clear
10:56 AM 91.9 °F 96.9 °F 69.1 °F 47% 29.94 in 10.0 mi Calm Calm - N/A   Clear
11:56 AM 93.9 °F 97.5 °F 66.9 °F 41% 29.93 in 10.0 mi North 8.1 mph - N/A   Partly Cloudy
12:56 PM 95.0 °F 99.0 °F 66.9 °F 40% 29.92 in 10.0 mi North 4.6 mph - N/A   Partly Cloudy
1:56 PM 96.1 °F 98.8 °F 64.9 °F 36% 29.91 in 10.0 mi Variable 4.6 mph - N/A   Partly Cloudy
2:56 PM 96.1 °F 99.3 °F 66.0 °F 37% 29.89 in 10.0 mi Calm Calm - N/A   Partly Cloudy
3:56 PM 97.0 °F 100.4 °F 66.0 °F 36% 29.87 in 10.0 mi North 6.9 mph - N/A   Partly Cloudy
4:56 PM 98.1 °F 101.8 °F 66.0 °F 35% 29.85 in 10.0 mi North 9.2 mph - N/A   Partly Cloudy
5:56 PM 97.0 °F 99.3 °F 64.0 °F 34% 29.83 in 10.0 mi NNE 11.5 mph - N/A   Partly Cloudy
6:56 PM 93.9 °F 97.0 °F 66.0 °F 40% 29.83 in 10.0 mi ENE 5.8 mph - N/A   Partly Cloudy
7:56 PM 91.0 °F 93.8 °F 66.0 °F 44% 29.83 in 10.0 mi Calm Calm - N/A   Clear
8:56 PM 84.9 °F 88.2 °F 68.0 °F 57% 29.83 in 10.0 mi Calm Calm - N/A   Clear
9:56 PM 82.9 °F 86.5 °F 69.1 °F 63% 29.84 in 10.0 mi WSW 3.5 mph - N/A   Clear
10:56 PM 82.9 °F 86.5 °F 69.1 °F 63% 29.86 in 10.0 mi WNW 3.5 mph - N/A   Clear
11:56 PM 82.0 °F 85.5 °F 69.1 °F 65% 29.85 in 10.0 mi Calm Calm - N/A   Clear